Fremont, NE

1:57 PM CDT on May 20, 2018 (GMT -0500)
Fremont Municipal

Weather History for KFET - March, 2013

Change the Weather History Date:

Saturday, March 9, 2013

  Actual Average Record
Temperature  
Mean Temperature 44 °F -  
Max Temperature 55 °F 48 °F 75 °F (2014)
Min Temperature 33 °F 24 °F 3 °F (1982)
Degree Days  
Heating Degree Days 20    
Moisture  
Dew Point 43 °F    
Average Humidity 94    
Maximum Humidity 100    
Minimum Humidity 87    
Precipitation  
Precipitation 0.55 in - - ()
Sea Level Pressure  
Sea Level Pressure 29.70 in    
Wind  
Wind Speed 13 mph (East)    
Max Wind Speed 22 mph    
Max Gust Speed 30 mph    
Visibility 7 miles    
Events Rain , Thunderstorm    
Averages and records for this station are not official NWS values.
T = Trace of Precipitation, MM = Missing Value Source: NWS Daily Summary

Daily Weather History Graph

Daily Weather History Graph

Search for Another Location

Airport or City:

Astronomy

Mar. 09, 2013 Rise Set
Actual Time 6:47 AM CST 6:26 PM CST
Civil Twilight 6:19 AM CST 6:53 PM CST
Nautical Twilight 5:47 AM CST 7:26 PM CST
Astronomical Twilight 5:15 AM CST 7:58 PM CST
Moon 5:13 AM CST (3/9) 4:28 PM CST (3/9)
Length of Visible Light 12h 34m
Length of Day
11h 38m
Waning Crescent, 5% of the Moon is Illuminated
Mar 9
Waning Crescent
Mar 11
New
Mar 19
First Quarter
Mar 27
Full
Apr 2
Last Quarter

Hourly Weather History & Observations

Time (CST) Temp. Windchill Dew Point Humidity Pressure Visibility Wind Dir Wind Speed Gust Speed Precip Events Conditions
12:15 AM 41.9 °F 33.7 °F 41.2 °F 97% 29.87 in 5.0 mi SE 17.3 mph 24.2 mph 0.03 in Rain Light Rain
12:35 AM 41.9 °F 33.7 °F 41.0 °F 97% 29.85 in 5.0 mi SE 17.3 mph 24.2 mph 0.07 in Rain Light Rain
12:55 AM 42.1 °F 34.5 °F 41.0 °F 96% 29.86 in 7.0 mi SE 15.0 mph 19.6 mph 0.07 in Thunderstorm Overcast
1:15 AM 42.3 °F 35.5 °F 41.0 °F 95% 29.86 in 7.0 mi SE 12.7 mph - N/A Rain , Thunderstorm Light Thunderstorms and Rain
1:35 AM 42.1 °F 35.2 °F 41.0 °F 96% 29.85 in 5.0 mi SE 12.7 mph - 0.01 in Rain , Thunderstorm Light Thunderstorms and Rain
1:55 AM 42.8 °F 34.8 °F 41.4 °F 95% 29.84 in 7.0 mi SE 17.3 mph - 0.01 in   Overcast
2:15 AM 43.2 °F 35.3 °F 41.7 °F 95% 29.83 in 7.0 mi SE 17.3 mph 23.0 mph N/A Thunderstorm Overcast
2:35 AM 43.0 °F 35.7 °F 41.9 °F 96% 29.83 in 7.0 mi SE 15.0 mph 25.3 mph N/A Thunderstorm Overcast
2:55 AM 42.8 °F 36.2 °F 41.9 °F 97% 29.82 in 5.0 mi SE 12.7 mph - N/A Rain , Thunderstorm Light Thunderstorms and Rain
3:15 AM 43.0 °F 37.2 °F 42.3 °F 97% 29.81 in 5.0 mi SE 10.4 mph - 0.01 in Rain Light Rain
3:35 AM 42.8 °F 36.6 °F 42.3 °F 98% 29.80 in 4.0 mi SE 11.5 mph - 0.04 in Rain , Thunderstorm Thunderstorms and Rain
3:55 AM 43.2 °F 36.6 °F 43.0 °F 99% 29.79 in 2.5 mi SE 12.7 mph - 0.19 in Rain Heavy Rain
4:15 AM 44.2 °F 38.8 °F 43.7 °F 98% 29.78 in 7.0 mi ESE 10.4 mph - 0.03 in Thunderstorm Overcast
4:35 AM 43.7 °F 37.3 °F 42.6 °F 96% 29.77 in 7.0 mi ESE 12.7 mph - 0.03 in   Overcast
4:55 AM 42.8 °F 35.4 °F 42.3 °F 98% 29.75 in 5.0 mi ESE 15.0 mph 18.4 mph 0.04 in Thunderstorm Unknown
5:15 AM 42.8 °F 36.2 °F 42.4 °F 99% 29.75 in 5.0 mi SE 12.7 mph - N/A   Overcast
5:35 AM 42.8 °F 36.2 °F 42.3 °F 98% 29.74 in 5.0 mi ESE 12.7 mph - N/A   Overcast
5:55 AM 43.3 °F 38.1 °F 42.3 °F 96% 29.75 in 7.0 mi ESE 9.2 mph - N/A   Overcast
6:15 AM 43.2 °F 37.0 °F 42.1 °F 96% 29.74 in 7.0 mi ESE 11.5 mph - N/A   Overcast
6:35 AM 43.0 °F 35.7 °F 41.7 °F 95% 29.73 in 7.0 mi ESE 15.0 mph - N/A   Overcast
6:55 AM 43.2 °F 36.2 °F 41.7 °F 95% 29.72 in 7.0 mi ESE 13.8 mph - N/A   Overcast
7:15 AM 43.3 °F 36.8 °F 41.9 °F 95% 29.72 in 7.0 mi ESE 12.7 mph 19.6 mph N/A   Overcast
7:35 AM 43.3 °F 37.2 °F 41.9 °F 95% 29.70 in 7.0 mi ESE 11.5 mph - N/A   Overcast
7:55 AM 43.9 °F 38.3 °F 42.1 °F 93% 29.70 in 7.0 mi ESE 10.4 mph - N/A   Overcast
8:15 AM 43.7 °F 38.1 °F 42.1 °F 94% 29.69 in 7.0 mi ESE 10.4 mph - N/A   Overcast
8:35 AM 44.1 °F 37.4 °F 42.3 °F 93% 29.68 in 7.0 mi ESE 13.8 mph - N/A   Overcast
8:55 AM 44.6 °F 38.8 °F 42.3 °F 91% 29.69 in 7.0 mi ESE 11.5 mph - N/A   Overcast
9:15 AM 44.6 °F 38.4 °F 42.3 °F 91% 29.69 in 7.0 mi ESE 12.7 mph - N/A   Overcast
9:35 AM 44.6 °F 39.7 °F 41.9 °F 90% 29.69 in 7.0 mi ESE 9.2 mph - N/A   Overcast
9:55 AM 45.1 °F 40.3 °F 42.1 °F 89% 29.68 in 7.0 mi East 9.2 mph - N/A   Light Drizzle
10:15 AM 45.5 °F 42.5 °F 42.4 °F 89% 29.67 in 7.0 mi East 5.8 mph - N/A   Overcast
10:35 AM 45.9 °F 43.6 °F 42.8 °F 89% 29.66 in 7.0 mi East 4.6 mph - N/A   Overcast
10:55 AM 46.4 °F 43.5 °F 43.0 °F 88% 29.67 in 7.0 mi East 5.8 mph - N/A   Overcast
11:15 AM 46.9 °F - 43.7 °F 88% 29.65 in 7.0 mi East 5.8 mph - N/A   Overcast
11:35 AM 47.7 °F - 44.1 °F 87% 29.64 in 7.0 mi East 8.1 mph - N/A   Overcast
11:55 AM 48.4 °F - 44.8 °F 87% 29.64 in 7.0 mi East 6.9 mph - N/A   Overcast
12:15 PM 48.9 °F - 45.7 °F 89% 29.63 in 7.0 mi ESE 10.4 mph - N/A   Mostly Cloudy
12:35 PM 49.1 °F - 46.4 °F 90% 29.62 in 7.0 mi East 10.4 mph - N/A   Overcast
12:55 PM 50.9 °F - 47.7 °F 89% 29.62 in 7.0 mi ESE 10.4 mph 16.1 mph N/A   Overcast
1:15 PM 51.4 °F - 48.9 °F 91% 29.60 in 7.0 mi ESE 9.2 mph - N/A   Mostly Cloudy
1:35 PM 52.3 °F - 50.0 °F 92% 29.60 in 7.0 mi ESE 8.1 mph - N/A   Mostly Cloudy
1:55 PM 53.1 °F - 50.7 °F 92% 29.59 in 7.0 mi SE 6.9 mph - N/A   Overcast
2:15 PM 53.1 °F - 50.9 °F 92% 29.58 in 10.0 mi ESE 3.5 mph - N/A   Overcast
2:35 PM 53.8 °F - 51.1 °F 91% 29.58 in 10.0 mi Calm Calm - N/A   Overcast
2:55 PM 55.4 °F - 51.8 °F 88% 29.60 in 10.0 mi South 10.4 mph - N/A   Overcast
3:15 PM 55.2 °F - 51.4 °F 87% 29.59 in 10.0 mi SE 9.2 mph - N/A   Overcast
3:35 PM 54.5 °F - 51.4 °F 89% 29.58 in 10.0 mi ESE 10.4 mph - N/A   Overcast
3:55 PM 54.0 °F - 51.3 °F 91% 29.57 in 10.0 mi ESE 8.1 mph - N/A   Overcast
4:15 PM 55.4 °F - 51.6 °F 87% 29.56 in 10.0 mi ESE 8.1 mph - N/A   Overcast
4:35 PM 55.0 °F - 51.8 °F 89% 29.57 in 10.0 mi ESE 4.6 mph - N/A   Overcast
4:55 PM 54.7 °F - 51.6 °F 89% 29.57 in 10.0 mi ESE 5.8 mph - N/A   Overcast
5:15 PM 54.5 °F - 51.4 °F 89% 29.57 in 10.0 mi Calm Calm - N/A   Overcast
5:35 PM 54.0 °F - 51.3 °F 91% 29.59 in 10.0 mi ENE 3.5 mph - N/A   Overcast
5:55 PM 54.0 °F - 51.1 °F 90% 29.60 in 10.0 mi Calm Calm - N/A   Overcast
6:15 PM 52.7 °F - 48.9 °F 87% 29.63 in 10.0 mi NW 21.9 mph 29.9 mph N/A   Overcast
6:35 PM 41.4 °F 33.0 °F 40.1 °F 95% 29.65 in 10.0 mi NNW 17.3 mph 26.5 mph N/A   Overcast
6:55 PM 40.1 °F 33.2 °F 39.0 °F 96% 29.66 in 10.0 mi North 11.5 mph 25.3 mph N/A   Overcast
7:15 PM 39.4 °F 31.1 °F 38.5 °F 97% 29.67 in 10.0 mi North 15.0 mph 20.7 mph N/A   Overcast
7:35 PM 38.5 °F 29.6 °F 37.4 °F 96% 29.68 in 10.0 mi NNW 16.1 mph 21.9 mph N/A   Overcast
7:55 PM 37.8 °F 28.6 °F 36.9 °F 97% 29.70 in 10.0 mi NNW 16.1 mph 25.3 mph N/A   Overcast
8:15 PM 37.4 °F 27.8 °F 36.7 °F 97% 29.70 in 4.0 mi NNW 17.3 mph 24.2 mph N/A   Overcast
8:35 PM 36.5 °F 27.0 °F 36.5 °F 100% 29.72 in 4.0 mi NNW 16.1 mph 21.9 mph N/A   Overcast
8:55 PM 35.8 °F 26.9 °F 35.6 °F 99% 29.72 in 3.0 mi North 13.8 mph 23.0 mph N/A   Light Drizzle
9:15 PM 35.6 °F 25.5 °F 35.6 °F 100% 29.72 in 7.0 mi North 17.3 mph 24.2 mph N/A Rain Light Rain
9:35 PM 35.6 °F 26.2 °F 35.2 °F 99% 29.74 in 7.0 mi NNW 15.0 mph 25.3 mph N/A   Drizzle
9:55 PM 35.6 °F 25.5 °F 35.1 °F 98% 29.75 in 2.0 mi NNW 17.3 mph 24.2 mph 0.06 in Rain Light Rain
10:15 PM 35.2 °F 25.8 °F 35.1 °F 99% 29.75 in 4.0 mi NNW 15.0 mph 24.2 mph 0.03 in Rain Rain
10:35 PM 34.9 °F 25.7 °F 34.7 °F 99% 29.72 in 3.0 mi North 13.8 mph 26.5 mph 0.08 in Rain Light Rain
10:55 PM 34.7 °F 23.4 °F 34.7 °F 100% 29.72 in 7.0 mi North 20.7 mph 29.9 mph 0.09 in Rain Light Rain
11:15 PM 34.7 °F 26.4 °F 34.2 °F 98% 29.74 in 5.0 mi North 11.5 mph 26.5 mph 0.01 in Rain Rain
11:35 PM 34.3 °F 24.6 °F 34.0 °F 99% 29.77 in 3.0 mi NNW 15.0 mph 21.9 mph 0.05 in Rain Rain
11:55 PM 33.8 °F 24.3 °F 33.8 °F 100% 29.73 in 3.0 mi North 13.8 mph 25.3 mph 0.09 in Rain Rain